Location: Chodzież
(52.9983°N, 16.9198°E)
Time: 05:27:54
(UTC+02:00)

ISS - Visible Passes

Search period start: 28 May 2018 00:00
Search period end: 07 June 2018 00:00
Orbit: 402 x 407 km, 51.6° (Epoch: 28 May)

Date Brightness Start Highest point End Pass type
(mag) Time Alt. Az. Time Alt. Az. Time Alt. Az.
28 May -1.8 01:07:18 10° W 01:08:21 16° WSW 01:08:21 16° WSW visible
28 May -3.9 22:38:20 10° W 22:41:36 66° S 22:44:51 10° ESE visible
29 May -2.9 00:14:53 10° W 00:17:42 29° SSW 00:17:42 29° SSW visible
29 May -3.3 23:22:35 10° W 23:25:42 40° SSW 23:27:06 25° SSE visible
30 May -3.6 22:30:20 10° W 22:33:33 52° SSW 22:36:31 12° ESE visible
31 May -2.0 00:07:12 10° W 00:09:08 18° SW 00:09:08 18° SW visible
31 May -2.6 23:14:41 10° W 23:17:30 26° SSW 23:18:35 22° S visible
01 Jun -3.0 22:22:19 10° W 22:25:22 36° SSW 22:28:02 12° SE visible
02 Jun -1.3 00:00:31 10° SW 00:00:40 10° SW 00:00:40 10° SW visible
02 Jun -1.9 23:07:02 10° WSW 23:09:09 16° SW 23:10:09 14° SSW visible
03 Jun -2.3 22:14:23 10° W 22:17:04 23° SSW 22:19:40 10° SSE visible
05 Jun -1.5 22:06:50 10° WSW 22:08:37 14° SW 22:10:24 10° S visible
